Data start date =,9/24/1934
Data end date/time =,5/3/2024 12:00
Vertical Datum =,MSL1912
""
Date/Time,LockDam_05a-Tailwater
,Elev
UTC,ft
,Ave
9/25/1934 12:00,640.13
9/26/1934 12:00,642.15
9/27/1934 12:00,643.71
9/28/1934 12:00,644.13
9/29/1934 12:00,644.15
9/30/1934 12:00,644.54
10/1/1934 12:00,644.89
10/2/1934 12:00,645.13
10/3/1934 12:00,645.30
10/4/1934 12:00,645.20
10/5/1934 12:00,644.94
10/6/1934 12:00,644.75
10/7/1934 12:00,644.54
10/8/1934 12:00,644.30
10/9/1934 12:00,643.90
10/10/1934 12:00,643.63
10/11/1934 12:00,643.49
10/12/1934 12:00,643.36
10/13/1934 12:00,643.16
10/14/1934 12:00,642.95
10/15/1934 12:00,642.77
10/16/1934 12:00,642.52
10/17/1934 12:00,642.37
10/18/1934 12:00,642.34
10/19/1934 12:00,642.12
10/20/1934 12:00,642.05
10/21/1934 12:00,642.50
10/22/1934 12:00,642.81
10/23/1934 12:00,642.90
10/24/1934 12:00,643.04
10/25/1934 12:00,643.26
10/26/1934 12:00,643.56
10/27/1934 12:00,643.80
10/28/1934 12:00,644.15
10/29/1934 12:00,644.04
10/30/1934 12:00,644.09
10/31/1934 12:00,643.95
11/1/1934 12:00,643.84
11/2/1934 12:00,643.62
11/3/1934 12:00,643.48
11/4/1934 12:00,643.45
11/5/1934 12:00,643.40
11/6/1934 12:00,643.22
11/7/1934 12:00,643.07
11/8/1934 12:00,643.04
11/9/1934 12:00,642.96
11/10/1934 12:00,642.96
11/11/1934 12:00,642.85
11/12/1934 12:00,642.75
11/13/1934 12:00,642.58
11/14/1934 12:00,642.38
11/15/1934 12:00,642.30
11/16/1934 12:00,642.22
11/17/1934 12:00,642.12
11/18/1934 12:00,642.09
11/19/1934 12:00,642.07
11/20/1934 12:00,642.13
11/21/1934 12:00,642.29
11/22/1934 12:00,642.58
11/23/1934 12:00,642.85
11/24/1934 12:00,643.13
11/25/1934 12:00,643.48
11/26/1934 12:00,643.83
11/27/1934 12:00,644.09
11/28/1934 12:00,644.23
11/29/1934 12:00,644.28
11/30/1934 12:00,644.30
12/1/1934 12:00,644.33
12/2/1934 12:00,644.30
12/3/1934 12:00,644.27
12/4/1934 12:00,644.12
12/5/1934 12:00,643.91
12/6/1934 12:00,643.66
12/7/1934 12:00,643.46
12/8/1934 12:00,643.15
12/9/1934 12:00,643.03
12/10/1934 12:00,642.89
12/11/1934 12:00,642.95
12/12/1934 12:00,646.50
12/13/1934 12:00,646.10
12/14/1934 12:00,646.16
12/15/1934 12:00,646.03
12/16/1934 12:00,645.99
12/17/1934 12:00,646.05
12/18/1934 12:00,646.00
12/19/1934 12:00,646.06
12/20/1934 12:00,645.99
12/21/1934 12:00,645.77
12/22/1934 12:00,645.63
12/23/1934 12:00,645.52
12/24/1934 12:00,645.21
12/25/1934 12:00,644.60
12/26/1934 12:00,643.98
12/27/1934 12:00,643.35
12/28/1934 12:00,642.55
12/29/1934 12:00,642.93
12/30/1934 12:00,643.30
12/31/1934 12:00,643.65
1/1/1935 12:00,643.88
1/2/1935 12:00,644.10
1/3/1935 12:00,644.15
1/4/1935 12:00,644.15
1/5/1935 12:00,643.85
1/6/1935 12:00,643.83
1/7/1935 12:00,643.85
1/8/1935 12:00,643.89
1/9/1935 12:00,643.90
1/10/1935 12:00,643.91
1/11/1935 12:00,643.93
1/12/1935 12:00,643.87
1/13/1935 12:00,643.60
1/14/1935 12:00,643.57
1/15/1935 12:00,643.37
1/16/1935 12:00,643.55
1/17/1935 12:00,643.47
1/18/1935 12:00,643.25
1/19/1935 12:00,643.35
1/20/1935 12:00,643.53
1/21/1935 12:00,643.33
1/22/1935 12:00,643.13
1/23/1935 12:00,643.30
1/24/1935 12:00,643.29
1/25/1935 12:00,643.25
1/26/1935 12:00,643.35
1/27/1935 12:00,643.43
1/28/1935 12:00,643.43
1/29/1935 12:00,643.49
1/30/1935 12:00,643.52
1/31/1935 12:00,643.56
2/1/1935 12:00,643.65
2/2/1935 12:00,643.66
2/3/1935 12:00,643.83
2/4/1935 12:00,643.85
2/5/1935 12:00,643.90
2/6/1935 12:00,643.86
2/7/1935 12:00,643.80
2/8/1935 12:00,643.87
2/9/1935 12:00,643.88
2/10/1935 12:00,643.95
2/11/1935 12:00,644.00
2/12/1935 12:00,644.05
2/13/1935 12:00,644.07
2/14/1935 12:00,644.18
2/15/1935 12:00,644.45
2/16/1935 12:00,644.65
2/17/1935 12:00,644.69
2/18/1935 12:00,644.75
2/19/1935 12:00,644.65
2/20/1935 12:00,644.57
2/21/1935 12:00,644.31
2/22/1935 12:00,644.24
2/23/1935 12:00,644.17
2/24/1935 12:00,643.89
2/25/1935 12:00,645.23
2/26/1935 12:00,646.25
2/27/1935 12:00,646.47
2/28/1935 12:00,646.65
3/1/1935 12:00,646.70
3/2/1935 12:00,646.60
3/3/1935 12:00,646.47
3/4/1935 12:00,644.97
3/5/1935 12:00,643.80
3/6/1935 12:00,643.28
3/7/1935 12:00,643.19
3/8/1935 12:00,643.30
3/9/1935 12:00,643.25
3/10/1935 12:00,643.15
3/11/1935 12:00,643.15
3/12/1935 12:00,643.16
3/13/1935 12:00,643.15
3/14/1935 12:00,643.21
3/15/1935 12:00,643.57
3/16/1935 12:00,643.95
3/17/1935 12:00,644.19
3/18/1935 12:00,644.95
3/19/1935 12:00,645.40
3/20/1935 12:00,645.55
3/21/1935 12:00,645.85
3/22/1935 12:00,646.25
3/23/1935 12:00,646.65
3/24/1935 12:00,647.05
3/25/1935 12:00,647.75
3/26/1935 12:00,649.25
3/27/1935 12:00,650.90
3/28/1935 12:00,652.05
3/29/1935 12:00,652.55
3/30/1935 12:00,652.60
3/31/1935 12:00,652.45
4/1/1935 12:00,652.10
4/2/1935 12:00,651.65
4/3/1935 12:00,651.10
4/4/1935 12:00,650.60
4/5/1935 12:00,650.05
4/6/1935 12:00,649.55
4/7/1935 12:00,649.10
4/8/1935 12:00,648.65
4/9/1935 12:00,648.10
4/10/1935 12:00,647.85
4/11/1935 12:00,647.45
4/12/1935 12:00,647.25
4/13/1935 12:00,647.00
4/14/1935 12:00,646.84
4/15/1935 12:00,646.90
4/16/1935 12:00,646.85
4/17/1935 12:00,646.50
4/18/1935 12:00,646.23
4/19/1935 12:00,646.09
4/20/1935 12:00,646.03
4/21/1935 12:00,645.93
4/22/1935 12:00,645.80
4/23/1935 12:00,645.61
4/24/1935 12:00,645.45
4/25/1935 12:00,645.40
4/26/1935 12:00,645.30
4/27/1935 12:00,645.30
4/28/1935 12:00,645.28
4/29/1935 12:00,645.28
4/30/1935 12:00,645.20
5/1/1935 12:00,645.05
5/2/1935 12:00,645.03
5/3/1935 12:00,645.00
5/4/1935 12:00,645.05
5/5/1935 12:00,645.07
5/6/1935 12:00,645.15
5/7/1935 12:00,645.13
5/8/1935 12:00,645.10
5/9/1935 12:00,645.23
5/10/1935 12:00,645.35
5/11/1935 12:00,645.45
5/12/1935 12:00,645.80
5/13/1935 12:00,646.45
5/14/1935 12:00,646.75
5/15/1935 12:00,646.70
5/16/1935 12:00,646.72
5/17/1935 12:00,646.85
5/18/1935 12:00,646.95
5/19/1935 12:00,646.95
5/20/1935 12:00,646.90
5/21/1935 12:00,646.75
5/22/1935 12:00,646.62
5/23/1935 12:00,646.45
5/24/1935 12:00,646.30
5/25/1935 12:00,646.20
5/26/1935 12:00,646.05
5/27/1935 12:00,646.05
5/28/1935 12:00,645.80
5/29/1935 12:00,645.17
5/30/1935 12:00,644.27
5/31/1935 12:00,643.42
6/1/1935 12:00,643.35
6/2/1935 12:00,643.35
6/3/1935 12:00,643.35
6/4/1935 12:00,643.35
6/5/1935 12:00,643.32
6/6/1935 12:00,643.35
6/7/1935 12:00,643.02
6/8/1935 12:00,642.83
6/9/1935 12:00,642.77
6/10/1935 12:00,642.52
6/11/1935 12:00,642.32
6/12/1935 12:00,642.20
6/13/1935 12:00,642.52
6/14/1935 12:00,642.15
6/15/1935 12:00,642.10
6/16/1935 12:00,642.52
6/17/1935 12:00,643.32
6/18/1935 12:00,645.10
6/19/1935 12:00,645.20
6/20/1935 12:00,645.25
6/21/1935 12:00,645.15
6/22/1935 12:00,645.87
6/23/1935 12:00,646.63
6/24/1935 12:00,646.50
6/25/1935 12:00,646.30
6/26/1935 12:00,646.75
6/27/1935 12:00,646.70
6/28/1935 12:00,646.70
6/29/1935 12:00,646.40
6/30/1935 12:00,645.72
7/1/1935 12:00,645.07
7/2/1935 12:00,645.15
7/3/1935 12:00,646.33
7/4/1935 12:00,646.47
7/5/1935 12:00,646.62
7/6/1935 12:00,647.10
7/7/1935 12:00,647.15
7/8/1935 12:00,647.38
7/9/1935 12:00,647.70
7/10/1935 12:00,648.15
7/11/1935 12:00,648.43
7/12/1935 12:00,648.58
7/13/1935 12:00,648.32
7/14/1935 12:00,647.95
7/15/1935 12:00,647.47
7/16/1935 12:00,647.05
7/17/1935 12:00,646.62
7/18/1935 12:00,646.05
7/19/1935 12:00,645.18
7/20/1935 12:00,644.30
7/21/1935 12:00,643.85
7/22/1935 12:00,643.40
7/23/1935 12:00,642.90
7/24/1935 12:00,644.20
7/25/1935 12:00,644.30
7/26/1935 12:00,642.95
7/27/1935 12:00,643.10
7/28/1935 12:00,644.45
7/29/1935 12:00,644.45
7/30/1935 12:00,643.75
7/31/1935 12:00,643.75
8/1/1935 12:00,643.55
8/2/1935 12:00,643.85
8/3/1935 12:00,644.20
8/4/1935 12:00,645.05
8/5/1935 12:00,644.15
8/6/1935 12:00,643.85
8/7/1935 12:00,645.65
8/8/1935 12:00,646.30
8/9/1935 12:00,646.65
8/10/1935 12:00,646.70
8/11/1935 12:00,646.25
8/12/1935 12:00,644.90
8/13/1935 12:00,643.55
8/14/1935 12:00,642.95
8/15/1935 12:00,643.15
8/16/1935 12:00,643.95
8/17/1935 12:00,643.35
8/18/1935 12:00,643.35
8/19/1935 12:00,642.85
8/20/1935 12:00,642.85
8/21/1935 12:00,644.35
8/22/1935 12:00,644.15
8/23/1935 12:00,644.35
8/24/1935 12:00,644.25
8/25/1935 12:00,644.35
8/26/1935 12:00,644.55
8/27/1935 12:00,643.95
8/28/1935 12:00,644.20
8/29/1935 12:00,644.10
8/30/1935 12:00,643.88
8/31/1935 12:00,643.90
9/1/1935 12:00,643.95
9/2/1935 12:00,643.75
9/3/1935 12:00,643.50
9/4/1935 12:00,643.33
9/5/1935 12:00,642.85
9/6/1935 12:00,642.85
9/7/1935 12:00,642.75
9/8/1935 12:00,642.97
9/9/1935 12:00,643.10
9/10/1935 12:00,642.85
9/11/1935 12:00,642.73
9/12/1935 12:00,642.80
9/13/1935 12:00,642.55
9/14/1935 12:00,642.60
9/15/1935 12:00,642.53
9/16/1935 12:00,642.48
9/17/1935 12:00,642.43
9/18/1935 12:00,642.47
9/19/1935 12:00,642.70
9/20/1935 12:00,643.80
9/21/1935 12:00,643.80
9/22/1935 12:00,642.95
9/23/1935 12:00,642.76
9/24/1935 12:00,642.61
9/25/1935 12:00,642.47
9/26/1935 12:00,643.75
9/27/1935 12:00,642.37
9/28/1935 12:00,642.65
9/29/1935 12:00,641.95
9/30/1935 12:00,641.23
10/1/1935 12:00,641.90
10/2/1935 12:00,641.85
10/3/1935 12:00,641.85
10/4/1935 12:00,641.75
10/5/1935 12:00,641.80
10/6/1935 12:00,641.85
10/7/1935 12:00,641.80
10/8/1935 12:00,641.80
10/9/1935 12:00,641.45
10/10/1935 12:00,641.35
10/11/1935 12:00,641.40
10/12/1935 12:00,641.40
10/13/1935 12:00,641.00
10/14/1935 12:00,641.35
10/15/1935 12:00,641.45
10/16/1935 12:00,641.30
10/17/1935 12:00,641.35
10/18/1935 12:00,641.45
10/19/1935 12:00,641.33
10/20/1935 12:00,641.35
10/21/1935 12:00,641.43
10/22/1935 12:00,642.55
10/23/1935 12:00,642.67
10/24/1935 12:00,642.50
10/25/1935 12:00,642.20
10/26/1935 12:00,641.63
10/27/1935 12:00,641.65
10/28/1935 12:00,641.96
10/29/1935 12:00,642.03
10/30/1935 12:00,641.73
10/31/1935 12:00,641.80
11/1/1935 12:00,643.23
11/2/1935 12:00,644.05
11/3/1935 12:00,644.45
11/4/1935 12:00,644.30
11/5/1935 12:00,644.85
11/6/1935 12:00,645.10
11/7/1935 12:00,644.63
11/8/1935 12:00,644.43
11/9/1935 12:00,643.70
11/10/1935 12:00,643.35
11/11/1935 12:00,643.25
11/12/1935 12:00,643.35
11/13/1935 12:00,643.00
11/14/1935 12:00,642.80
11/15/1935 12:00,643.20
11/16/1935 12:00,643.08
11/17/1935 12:00,642.74
11/18/1935 12:00,642.65
11/19/1935 12:00,642.80
11/20/1935 12:00,642.45
11/21/1935 12:00,642.85
11/22/1935 12:00,642.42
11/23/1935 12:00,642.07
11/24/1935 12:00,641.37
11/25/1935 12:00,641.45
11/26/1935 12:00,641.85
11/27/1935 12:00,641.15
11/28/1935 12:00,642.77
11/29/1935 12:00,642.47
11/30/1935 12:00,641.55
12/1/1935 12:00,641.15
12/2/1935 12:00,641.00
12/3/1935 12:00,640.95
12/4/1935 12:00,640.85
12/5/1935 12:00,640.95
12/6/1935 12:00,641.10
12/7/1935 12:00,641.77
12/8/1935 12:00,642.18
12/9/1935 12:00,642.40
12/10/1935 12:00,642.55
12/11/1935 12:00,642.05
12/12/1935 12:00,642.60
12/13/1935 12:00,642.10
12/14/1935 12:00,642.05
12/15/1935 12:00,642.25
12/16/1935 12:00,642.43
12/17/1935 12:00,642.55
12/18/1935 12:00,642.50
12/19/1935 12:00,642.45
12/20/1935 12:00,642.20
12/21/1935 12:00,642.70
12/22/1935 12:00,643.85
12/23/1935 12:00,645.00
12/24/1935 12:00,645.47
12/25/1935 12:00,645.41
12/26/1935 12:00,645.67
12/27/1935 12:00,645.35
12/28/1935 12:00,645.12
12/29/1935 12:00,645.15
12/30/1935 12:00,645.22
12/31/1935 12:00,645.29
1/1/1936 12:00,645.05
1/2/1936 12:00,645.05
1/3/1936 12:00,645.23
1/4/1936 12:00,645.11
1/5/1936 12:00,644.90
1/6/1936 12:00,644.82
1/7/1936 12:00,644.97
1/8/1936 12:00,644.50
1/9/1936 12:00,644.55
1/10/1936 12:00,644.64
1/11/1936 12:00,644.39
1/12/1936 12:00,644.52
1/13/1936 12:00,644.68
1/14/1936 12:00,644.17
1/15/1936 12:00,644.42
1/16/1936 12:00,643.91
1/17/1936 12:00,643.75
1/18/1936 12:00,644.00
1/19/1936 12:00,643.95
1/20/1936 12:00,643.55
1/21/1936 12:00,643.34
1/22/1936 12:00,643.25
1/23/1936 12:00,643.23
1/24/1936 12:00,643.02
1/25/1936 12:00,643.09
1/26/1936 12:00,643.20
1/27/1936 12:00,643.32
1/28/1936 12:00,643.30
1/29/1936 12:00,643.27
1/30/1936 12:00,643.05
1/31/1936 12:00,643.01
2/1/1936 12:00,643.05
2/2/1936 12:00,643.05
2/3/1936 12:00,643.15
2/4/1936 12:00,643.11
2/5/1936 12:00,643.20
2/6/1936 12:00,643.02
2/7/1936 12:00,642.94
2/8/1936 12:00,642.90
2/9/1936 12:00,642.88
2/10/1936 12:00,643.07
2/11/1936 12:00,643.17
2/12/1936 12:00,643.13
2/13/1936 12:00,642.78
2/14/1936 12:00,642.75
2/15/1936 12:00,642.85
2/16/1936 12:00,642.80
2/17/1936 12:00,642.75
2/18/1936 12:00,642.80
2/19/1936 12:00,642.95
2/20/1936 12:00,642.80
2/21/1936 12:00,642.83
2/22/1936 12:00,643.20
2/23/1936 12:00,643.05
2/24/1936 12:00,643.25
2/25/1936 12:00,643.65
2/26/1936 12:00,643.69
2/27/1936 12:00,643.84
2/28/1936 12:00,643.91
2/29/1936 12:00,643.91
3/1/1936 12:00,643.96
3/2/1936 12:00,644.01
3/3/1936 12:00,643.96
3/4/1936 12:00,643.91
3/5/1936 12:00,643.94
3/6/1936 12:00,643.65
3/7/1936 12:00,643.57
3/8/1936 12:00,643.95
3/9/1936 12:00,644.07
3/10/1936 12:00,644.23
3/11/1936 12:00,646.10
3/12/1936 12:00,647.28
3/13/1936 12:00,647.67
3/14/1936 12:00,647.95
3/15/1936 12:00,648.13
3/16/1936 12:00,647.94
3/17/1936 12:00,647.60
3/18/1936 12:00,647.45
3/19/1936 12:00,647.25
3/20/1936 12:00,647.84
3/21/1936 12:00,649.05
3/22/1936 12:00,650.35
3/23/1936 12:00,650.45
3/24/1936 12:00,650.85
3/25/1936 12:00,651.29
3/26/1936 12:00,651.85
3/27/1936 12:00,652.75
3/28/1936 12:00,653.25
3/29/1936 12:00,653.47
3/30/1936 12:00,653.74
3/31/1936 12:00,653.45
4/1/1936 12:00,653.40
4/2/1936 12:00,653.26
4/3/1936 12:00,652.93
4/4/1936 12:00,652.65
4/5/1936 12:00,652.35
4/6/1936 12:00,651.90
4/7/1936 12:00,651.63
4/8/1936 12:00,651.25
4/9/1936 12:00,651.05
4/10/1936 12:00,650.81
4/11/1936 12:00,650.60
4/12/1936 12:00,650.45
4/13/1936 12:00,650.54
4/14/1936 12:00,650.90
4/15/1936 12:00,651.63
4/16/1936 12:00,652.68
4/17/1936 12:00,653.47
4/18/1936 12:00,653.97
4/19/1936 12:00,654.17
4/20/1936 12:00,654.25
4/21/1936 12:00,654.10
4/22/1936 12:00,653.68
4/23/1936 12:00,653.18
4/24/1936 12:00,652.67
4/25/1936 12:00,652.15
4/26/1936 12:00,651.72
4/27/1936 12:00,651.26
4/28/1936 12:00,650.85
4/29/1936 12:00,650.45
4/30/1936 12:00,650.12
5/1/1936 12:00,650.46
5/2/1936 12:00,650.34
5/3/1936 12:00,650.14
5/4/1936 12:00,650.15
5/5/1936 12:00,650.26
5/6/1936 12:00,650.40
5/7/1936 12:00,650.53
5/8/1936 12:00,650.57
5/9/1936 12:00,650.67
5/10/1936 12:00,651.18
5/11/1936 12:00,652.00
5/12/1936 12:00,652.55
5/13/1936 12:00,652.56
5/14/1936 12:00,652.08
5/15/1936 12:00,651.74
5/16/1936 12:00,651.36
5/17/1936 12:00,651.05
5/18/1936 12:00,650.76
5/19/1936 12:00,650.45
5/20/1936 12:00,650.10
5/21/1936 12:00,649.77
5/22/1936 12:00,649.45
5/23/1936 12:00,649.20
5/24/1936 12:00,648.95
5/25/1936 12:00,648.63
5/26/1936 12:00,648.08
5/27/1936 12:00,647.40
5/28/1936 12:00,647.37
5/29/1936 12:00,646.90
5/30/1936 12:00,646.90
5/31/1936 12:00,646.43
6/1/1936 12:00,646.18
6/2/1936 12:00,645.67
6/3/1936 12:00,645.27
6/4/1936 12:00,645.19
6/5/1936 12:00,644.35
6/6/1936 12:00,644.72
6/7/1936 12:00,644.98
6/8/1936 12:00,644.77
6/9/1936 12:00,644.18
6/10/1936 12:00,644.82
6/11/1936 12:00,644.33
6/12/1936 12:00,644.30
6/13/1936 12:00,644.20
6/14/1936 12:00,643.62
6/15/1936 12:00,643.70
6/16/1936 12:00,642.78
6/17/1936 12:00,643.50
6/18/1936 12:00,643.32
6/19/1936 12:00,642.72
6/20/1936 12:00,642.78
6/21/1936 12:00,642.46
6/22/1936 12:00,642.50
6/23/1936 12:00,642.48
6/24/1936 12:00,642.50
6/25/1936 12:00,642.33
6/26/1936 12:00,642.30
6/27/1936 12:00,642.25
6/28/1936 12:00,642.08
6/29/1936 12:00,642.10
6/30/1936 12:00,642.10
7/1/1936 12:00,642.06
7/2/1936 12:00,641.92
7/3/1936 12:00,641.85
7/4/1936 12:00,641.60
7/5/1936 12:00,641.50
7/6/1936 12:00,641.51
7/7/1936 12:00,641.26
7/8/1936 12:00,641.06
7/9/1936 12:00,641.00
7/10/1936 12:00,641.08
7/11/1936 12:00,640.75
7/12/1936 12:00,640.65
7/13/1936 12:00,640.74
7/14/1936 12:00,640.72
7/15/1936 12:00,640.56
7/16/1936 12:00,640.71
7/17/1936 12:00,640.60
7/18/1936 12:00,640.53
7/19/1936 12:00,640.42
7/20/1936 12:00,640.43
7/21/1936 12:00,640.10
7/22/1936 12:00,639.80
7/23/1936 12:00,639.65
7/24/1936 12:00,639.66
7/25/1936 12:00,639.66
7/26/1936 12:00,639.75
7/27/1936 12:00,639.77
7/28/1936 12:00,640.60
7/29/1936 12:00,640.25
7/30/1936 12:00,639.98
7/31/1936 12:00,639.93
8/1/1936 12:00,639.78
8/2/1936 12:00,639.74
8/3/1936 12:00,639.75
8/4/1936 12:00,639.74
8/5/1936 12:00,639.85
8/6/1936 12:00,639.84
8/7/1936 12:00,639.85
8/8/1936 12:00,639.90
8/9/1936 12:00,639.92
8/10/1936 12:00,639.85
8/11/1936 12:00,639.87
8/12/1936 12:00,639.80
8/13/1936 12:00,639.76
8/14/1936 12:00,639.70
8/15/1936 12:00,639.65
8/16/1936 12:00,639.66
8/17/1936 12:00,639.65
8/18/1936 12:00,639.72
8/19/1936 12:00,639.70
8/20/1936 12:00,639.72
8/21/1936 12:00,639.84
8/22/1936 12:00,640.07
8/23/1936 12:00,640.15
8/24/1936 12:00,640.23
8/25/1936 12:00,640.23
8/26/1936 12:00,640.18
8/27/1936 12:00,640.49
8/28/1936 12:00,642.45
8/29/1936 12:00,645.28
8/30/1936 12:00,641.62
8/31/1936 12:00,641.60
9/1/1936 12:00,640.85
9/2/1936 12:00,640.70
9/3/1936 12:00,641.12
9/4/1936 12:00,640.62
9/5/1936 12:00,641.10
9/6/1936 12:00,641.02
9/7/1936 12:00,642.05
9/8/1936 12:00,643.05
9/9/1936 12:00,641.35
9/10/1936 12:00,640.00
9/11/1936 12:00,640.78
9/12/1936 12:00,641.18
9/13/1936 12:00,641.55
9/14/1936 12:00,640.08
9/15/1936 12:00,641.12
9/16/1936 12:00,643.15
9/17/1936 12:00,640.52
9/18/1936 12:00,640.92
9/19/1936 12:00,640.95
9/20/1936 12:00,641.35
9/21/1936 12:00,642.16
9/22/1936 12:00,641.88
9/23/1936 12:00,640.68
9/24/1936 12:00,642.33
9/25/1936 12:00,640.97
9/26/1936 12:00,640.70
9/27/1936 12:00,641.00
9/28/1936 12:00,640.80
9/29/1936 12:00,640.70
9/30/1936 12:00,640.72
10/1/1936 12:00,640.62
10/2/1936 12:00,640.52
10/3/1936 12:00,640.30
10/4/1936 12:00,640.26
10/5/1936 12:00,640.25
10/6/1936 12:00,640.83
10/7/1936 12:00,641.70
10/8/1936 12:00,641.55
10/9/1936 12:00,641.61
10/10/1936 12:00,641.77
10/11/1936 12:00,641.98
10/12/1936 12:00,642.26
10/13/1936 12:00,642.42
10/14/1936 12:00,642.35
10/15/1936 12:00,642.62
10/16/1936 12:00,642.75
10/17/1936 12:00,643.32
10/18/1936 12:00,643.56
10/19/1936 12:00,643.38
10/20/1936 12:00,643.50
10/21/1936 12:00,643.92
10/22/1936 12:00,643.57
10/23/1936 12:00,643.72
10/24/1936 12:00,643.72
10/25/1936 12:00,643.91
10/26/1936 12:00,644.28
10/27/1936 12:00,644.34
10/28/1936 12:00,644.35
10/29/1936 12:00,644.35
10/30/1936 12:00,644.35
10/31/1936 12:00,644.65
11/1/1936 12:00,645.32
11/2/1936 12:00,645.41
11/3/1936 12:00,645.13
11/4/1936 12:00,645.08
11/5/1936 12:00,645.48
11/6/1936 12:00,645.36
11/7/1936 12:00,645.40
11/8/1936 12:00,645.53
11/9/1936 12:00,645.46
11/10/1936 12:00,645.48
11/11/1936 12:00,645.38
11/12/1936 12:00,645.44
11/13/1936 12:00,645.55
11/14/1936 12:00,645.45
11/15/1936 12:00,645.45
11/16/1936 12:00,645.55
11/17/1936 12:00,645.54
11/18/1936 12:00,645.57
11/19/1936 12:00,645.52
11/20/1936 12:00,645.52
11/21/1936 12:00,645.40
11/22/1936 12:00,645.47
11/23/1936 12:00,645.57
11/24/1936 12:00,645.53
11/25/1936 12:00,645.48
11/26/1936 12:00,645.64
11/27/1936 12:00,645.43
11/28/1936 12:00,645.58
11/29/1936 12:00,645.77
11/30/1936 12:00,645.63
12/1/1936 12:00,645.51
12/2/1936 12:00,645.16
12/3/1936 12:00,645.10
12/4/1936 12:00,645.14
12/5/1936 12:00,645.11
12/6/1936 12:00,645.10
12/7/1936 12:00,645.11
12/8/1936 12:00,645.10
12/9/1936 12:00,645.09
12/10/1936 12:00,645.08
12/11/1936 12:00,645.20
12/12/1936 12:00,645.38
12/13/1936 12:00,645.42
12/14/1936 12:00,645.40
12/15/1936 12:00,645.51
12/16/1936 12:00,645.49
12/17/1936 12:00,645.60
12/18/1936 12:00,645.70
12/19/1936 12:00,645.86
12/20/1936 12:00,645.56
12/21/1936 12:00,645.62
12/22/1936 12:00,645.68
12/23/1936 12:00,645.51
12/24/1936 12:00,645.48
12/25/1936 12:00,645.63
12/26/1936 12:00,645.67
12/27/1936 12:00,645.51
12/28/1936 12:00,645.58
12/29/1936 12:00,645.53
12/30/1936 12:00,645.36
12/31/1936 12:00,645.40
1/1/1937 12:00,645.91
1/2/1937 12:00,645.80
1/3/1937 12:00,646.40
1/4/1937 12:00,645.98
1/5/1937 12:00,645.96
1/6/1937 12:00,645.60
1/7/1937 12:00,645.60
1/8/1937 12:00,645.69
1/9/1937 12:00,645.42
1/10/1937 12:00,645.40
1/11/1937 12:00,645.15
1/12/1937 12:00,645.30
1/13/1937 12:00,645.25
1/14/1937 12:00,645.07
1/15/1937 12:00,645.33
1/16/1937 12:00,645.48
1/17/1937 12:00,645.23
1/18/1937 12:00,645.31
1/19/1937 12:00,645.28
1/20/1937 12:00,645.19
1/21/1937 12:00,645.17
1/22/1937 12:00,645.18
1/23/1937 12:00,645.16
1/24/1937 12:00,645.23
1/25/1937 12:00,645.20
1/26/1937 12:00,645.22
1/27/1937 12:00,645.24
1/28/1937 12:00,645.18
1/29/1937 12:00,645.21
1/30/1937 12:00,645.23
1/31/1937 12:00,645.22
2/1/1937 12:00,645.29
2/2/1937 12:00,645.30
2/3/1937 12:00,645.28
2/4/1937 12:00,645.19
2/5/1937 12:00,645.24
2/6/1937 12:00,645.21
2/7/1937 12:00,645.21
2/8/1937 12:00,645.24
2/9/1937 12:00,645.27
2/10/1937 12:00,645.26
2/11/1937 12:00,645.24
2/12/1937 12:00,645.26
2/13/1937 12:00,645.31
2/14/1937 12:00,645.43
2/15/1937 12:00,645.39
2/16/1937 12:00,645.31
2/17/1937 12:00,645.31
2/18/1937 12:00,645.30
2/19/1937 12:00,645.40
2/20/1937 12:00,645.50
2/21/1937 12:00,645.91
2/22/1937 12:00,645.64
2/23/1937 12:00,645.10
2/24/1937 12:00,645.25
2/25/1937 12:00,645.25
2/26/1937 12:00,645.26
2/27/1937 12:00,645.57
2/28/1937 12:00,645.69
3/1/1937 12:00,645.47
3/2/1937 12:00,645.53
3/3/1937 12:00,645.43
3/4/1937 12:00,645.49
3/5/1937 12:00,645.71
3/6/1937 12:00,645.93
3/7/1937 12:00,647.98
3/8/1937 12:00,648.88
3/9/1937 12:00,649.06
3/10/1937 12:00,648.84
3/11/1937 12:00,648.27
3/12/1937 12:00,647.29
3/13/1937 12:00,646.99
3/14/1937 12:00,646.69
3/15/1937 12:00,646.58
3/16/1937 12:00,646.33
3/17/1937 12:00,645.59
3/18/1937 12:00,646.40
3/19/1937 12:00,645.44
3/20/1937 12:00,645.64
3/21/1937 12:00,645.23
3/22/1937 12:00,645.52
3/23/1937 12:00,645.50
3/24/1937 12:00,645.64
3/25/1937 12:00,645.25
3/26/1937 12:00,645.58
3/27/1937 12:00,645.24
3/28/1937 12:00,645.30
3/29/1937 12:00,645.45
3/30/1937 12:00,645.54
3/31/1937 12:00,645.67
4/1/1937 12:00,645.94
4/2/1937 12:00,645.70
4/3/1937 12:00,646.07
4/4/1937 12:00,646.41
4/5/1937 12:00,646.41
4/6/1937 12:00,646.44
4/7/1937 12:00,646.41
4/8/1937 12:00,647.11
4/9/1937 12:00,647.10
4/10/1937 12:00,647.35
4/11/1937 12:00,647.04
4/12/1937 12:00,646.96
4/13/1937 12:00,647.10
4/14/1937 12:00,646.97
4/15/1937 12:00,647.43
4/16/1937 12:00,647.51
4/17/1937 12:00,647.89
4/18/1937 12:00,648.29
4/19/1937 12:00,648.55
4/20/1937 12:00,648.79
4/21/1937 12:00,649.04
4/22/1937 12:00,649.20
4/23/1937 12:00,649.12
4/24/1937 12:00,649.23
4/25/1937 12:00,649.37
4/26/1937 12:00,649.59
4/27/1937 12:00,649.75
4/28/1937 12:00,649.81
4/29/1937 12:00,649.88
4/30/1937 12:00,649.93
5/1/1937 12:00,650.03
5/2/1937 12:00,650.00
5/3/1937 12:00,649.94
5/4/1937 12:00,649.92
5/5/1937 12:00,650.00
5/6/1937 12:00,650.09
5/7/1937 12:00,650.07
5/8/1937 12:00,649.88
5/9/1937 12:00,649.74
5/10/1937 12:00,649.55
5/11/1937 12:00,649.30
5/12/1937 12:00,649.26
5/13/1937 12:00,649.06
5/14/1937 12:00,648.73
5/15/1937 12:00,648.40
5/16/1937 12:00,648.41
5/17/1937 12:00,648.34
5/18/1937 12:00,648.29
5/19/1937 12:00,648.11
5/20/1937 12:00,647.92
5/21/1937 12:00,648.11
5/22/1937 12:00,648.28
5/23/1937 12:00,648.09
5/24/1937 12:00,647.84
5/25/1937 12:00,647.75
5/26/1937 12:00,647.80
5/27/1937 12:00,647.83
5/28/1937 12:00,647.88
5/29/1937 12:00,647.84
5/30/1937 12:00,647.85
5/31/1937 12:00,648.01
6/1/1937 12:00,648.09
6/2/1937 12:00,647.78
6/3/1937 12:00,647.73
6/4/1937 12:00,647.70
6/5/1937 12:00,647.49
6/6/1937 12:00,647.54
6/7/1937 12:00,647.46
6/8/1937 12:00,646.94
6/9/1937 12:00,646.80
6/10/1937 12:00,646.77
6/11/1937 12:00,646.59
6/12/1937 12:00,646.66
6/13/1937 12:00,646.69
6/14/1937 12:00,646.86